Location: Middle Street
(51.7167°N, 0.0333°E)
Time: 00:59:27
(UTC+00:00)

Cosmos 1553 Rocket - Pass Details

Date: 20 January 2021
Orbit: 941 x 1008 km, 82.9° (Epoch: 28 February)

Event Time Altitude Azimuth Distance (km) Brightness Sun altitude
Rises 19:26:28 0° 350° (N) 3,753 7.2 -27.1°
Reaches altitude 10° 19:29:02 10° 351° (N) 2,799 6.5 -27.5°
Maximum altitude 19:35:30 83° 80° (E) 1,021 3.9 -28.5°
Enters shadow 19:36:13 71° 148° (SSE) 1,061 3.9 -28.6°
